WS6A-13 Weather Reports


time (UTC)temp
C
wind
direction
speed
KPH
gust
KPH
rain 1hr
cm
rain 24hr
cm
rain mn
cm
humidity
%
barometer
mb
20260506214504 13 243 0.0 4.8 0.00 2.44 1.37 60 1012.5
20260506213004 13 245 0.0 3.2 0.00 2.46 1.37 61 1012.3
20260506211504 13 51 0.0 4.8 0.00 2.46 1.37 63 1012.1
20260506204503 13 68 1.6 4.8 0.00 2.49 1.37 64 1011.9
20260506203004 13 33 0.0 4.8 0.00 2.54 1.37 60 1012.1
20260506201504 14 286 0.0 8.0 0.00 2.59 1.37 62 1012.1
20260506200004 14 51 0.0 4.8 0.00 2.67 1.37 60 1011.9
20260506193004 15 239 0.0 11.3 0.00 3.61 1.37 61 1011.6
20260506191504 15 55 0.0 9.7 0.00 3.61 1.37 59 1011.7
20260506190004 15 65 1.6 4.8 0.00 3.61 1.37 59 1011.8
20260506183003 15 232 0.0 11.3 0.00 3.61 1.37 60 1011.5
20260506181504 15 51 1.6 8.0 0.00 3.61 1.37 59 1011.5
20260506174504 15 251 0.0 9.7 0.00 3.61 1.37 61 1011.8
20260506171504 15 70 1.6 9.7 0.00 3.61 1.37 59 1011.9
20260506170004 14 17 0.0 8.0 0.00 3.61 1.37 60 1012.0
20260506164503 14 70 0.0 4.8 0.00 3.61 1.37 63 1012.1
20260506163004 14 48 0.0 4.8 0.00 3.61 1.37 60 1012.0
20260506161504 13 52 0.0 9.7 0.00 3.61 1.37 68 1011.8
20260506160004 13 49 0.0 11.3 0.00 3.61 1.37 67 1011.8
20260506154504 12 53 0.0 4.8 0.00 3.61 1.37 66 1012.2
20260506153004 12 38 0.0 4.8 0.00 3.61 1.37 69 1012.1
20260506151504 12 42 0.0 11.3 0.00 3.61 1.37 71 1011.5
20260506150004 12 46 0.0 11.3 0.03 3.61 1.37 73 1011.0
20260506144503 11 72 0.0 4.8 0.03 3.61 1.37 77 1011.0
20260506143003 10 41 0.0 4.8 0.03 3.61 1.37 77 1010.8
20260506141504 10 51 0.0 8.0 0.03 3.61 1.37 82 1010.8
20260506134504 9 59 0.0 4.8 0.00 3.58 1.35 87 1010.9
20260506131504 8 41 0.0 4.8 0.00 3.58 1.35 88 1010.5
20260506130005 8 43 0.0 4.8 0.00 3.58 1.35 89 1010.3
20260506124503 8 55 0.0 3.2 0.00 3.58 1.35 90 1009.8
20260506121503 7 358 0.0 4.8 0.00 3.58 1.35 92 1009.9
20260506120004 7 65 0.0 4.8 0.00 3.58 1.35 93 1009.4
20260506114504 7 39 0.0 0.0 0.00 3.61 1.35 93 1008.7
20260506113004 7 42 0.0 1.6 0.00 3.61 1.35 93 1008.4
20260506111504 7 48 0.0 1.6 0.00 3.61 1.35 94 1008.6
20260506110004 7 48 0.0 0.0 0.00 3.61 1.35 94 1008.3
20260506104504 7 48 0.0 0.0 0.00 3.61 1.35 94 1008.4
20260506103004 7 48 0.0 1.6 0.00 3.63 1.35 94 1007.4
20260506101503 7 55 0.0 4.8 0.00 3.66 1.35 94 1007.3
20260506094504 7 19 0.0 0.0 0.00 3.71 1.35 94 1007.2
20260506093004 7 350 0.0 0.0 0.00 3.78 1.35 94 1007.0
20260506091504 7 350 0.0 0.0 0.00 3.78 1.35 94 1006.7
20260506090004 7 29 0.0 3.2 0.03 3.78 1.35 94 1006.7
20260506084504 7 313 0.0 12.9 0.08 3.78 1.35 94 1006.7
20260506083003 7 36 0.0 8.0 0.10 3.78 1.35 94 1006.8
20260506081504 7 47 0.0 8.0 0.20 3.78 1.35 94 1006.5
20260506073004 7 26 3.2 11.3 0.20 3.71 1.24 93 1006.5
20260506071504 8 13 0.0 3.2 0.13 3.61 1.14 94 1006.3
20260506061504 8 276 0.0 9.7 0.38 3.48 1.02 94 1005.6
20260506043004 11 66 0.0 4.8 0.18 2.62 0.15 94 1005.5
20260506041504 11 46 0.0 0.0 0.05 2.49 0.03 94 1005.7
20260506040004 11 105 0.0 0.0 0.05 2.46 0.00 94 1005.1
20260506034504 12 105 0.0 0.0 0.08 2.46 2.46 93 1005.0
20260506031503 13 32 0.0 0.0 0.28 2.44 2.44 94 1005.2
20260506030004 14 32 0.0 0.0 0.36 2.41 2.41 93 1005.3
20260506024504 15 300 0.0 3.2 0.38 2.39 2.39 95 1005.7
20260506023004 15 300 0.0 0.0 0.33 2.31 2.31 95 1006.0
20260506021504 15 300 0.0 0.0 0.28 2.16 2.16 95 1006.0
20260506020004 15 300 0.0 0.0 0.33 2.06 2.06 95 1006.0
20260506014504 15 300 0.0 0.0 0.36 2.01 2.01 95 1005.8
20260506011504 15 300 0.0 0.0 0.30 1.88 1.88 95 1005.7
20260506010004 15 300 0.0 0.0 0.18 1.73 1.73 95 1005.7
20260506004514 15 300 0.0 0.0 0.13 1.65 1.65 95 1005.4
20260506001504 16 300 0.0 0.0 0.08 1.57 1.57 94 1005.1
20260506000004 16 300 0.0 0.0 0.05 1.55 1.55 94 1005.2
20260505234504 16 300 0.0 0.0 0.03 1.52 1.52 94 1005.3
20260505233019 16 300 0.0 0.0 0.05 1.52 1.52 95 1005.2
20260505231504 16 300 0.0 0.0 0.08 1.50 1.50 94 1005.3
20260505230004 16 300 0.0 0.0 0.10 1.50 1.50 94 1005.6
20260505224503 16 300 0.0 0.0 0.10 1.50 1.50 94 1005.7
20260505223005 16 78 0.0 4.8 0.10 1.47 1.47 94 1006.0
20260505221504 16 112 0.0 4.8 0.05 1.42 1.42 94 1006.2